Location: Newark
(30.0333°N, 31.2167°E)
Time: 17:39:13
(UTC+00:00)

Courier 1B - All Passes

Search period start: 29 January 2020 00:00
Search period end: 08 February 2020 00:00
Orbit: 962 x 1209 km, 28.3° (Epoch: 29 January)

Date Brightness Start Highest point End Pass type
(mag) Time Alt. Az. Time Alt. Az. Time Alt. Az.
29 Jan - 01:47:56 10° W 01:55:07 77° S 02:02:46 10° E visible
29 Jan - 03:42:08 10° W 03:49:18 50° SSW 03:56:46 10° SE visible
29 Jan - 05:37:36 10° WSW 05:43:08 21° SSW 05:48:46 10° SSE daylight
29 Jan - 21:07:47 10° SSW 21:13:23 30° SSE 21:19:15 10° E night (unlit)
29 Jan - 23:00:24 10° WSW 23:07:04 64° SSE 23:14:10 10° E night (unlit)
30 Jan - 00:54:11 10° W 01:01:12 79° S 01:08:43 10° E visible
30 Jan - 02:48:16 10° W 02:55:25 58° SSW 03:02:57 10° ESE visible
30 Jan - 04:43:08 10° W 04:49:20 28° SSW 04:55:43 10° SSE daylight
30 Jan - 20:14:53 10° SSW 20:19:48 23° SSE 20:24:51 10° ESE night (unlit)
30 Jan - 22:06:53 10° WSW 22:13:19 55° SSE 22:20:08 10° E night (unlit)
31 Jan - 00:00:28 10° W 00:07:20 79° S 00:14:39 10° E visible
31 Jan - 01:54:28 10° W 02:01:32 66° SSW 02:09:03 10° ESE visible
31 Jan - 03:48:57 10° W 03:55:32 35° SSW 04:02:22 10° SE visible
31 Jan - 05:46:46 10° SW 05:49:15 12° SSW 05:51:44 10° SSW daylight
31 Jan - 19:22:23 10° S 19:26:14 16° SSE 19:30:08 10° ESE night (unlit)
31 Jan - 21:13:28 10° SW 21:19:38 45° SSE 21:26:05 10° E night (unlit)
31 Jan - 23:06:48 10° WSW 23:13:30 75° S 23:20:38 10° E night (unlit)
01 Feb - 01:00:44 10° W 01:07:39 72° S 01:15:05 10° ESE visible
01 Feb - 02:54:57 10° W 03:01:42 42° SSW 03:08:48 10° SE visible
01 Feb - 04:51:02 10° WSW 04:55:28 17° SSW 05:00:00 10° S daylight
01 Feb - 18:30:54 10° SSE 18:32:41 11° SSE 18:34:27 10° SE visible
01 Feb - 20:20:10 10° SW 20:26:00 36° SSE 20:32:00 10° E night (unlit)
01 Feb - 22:13:10 10° WSW 22:19:43 69° S 22:26:38 10° E night (unlit)
02 Feb - 00:07:01 10° W 00:13:49 77° S 00:21:05 10° E visible
02 Feb - 02:01:05 10° W 02:07:53 50° SSW 02:15:07 10° SE visible
02 Feb - 03:56:18 10° WSW 04:01:41 22° SSW 04:07:16 10° SSE visible
02 Feb - 19:27:03 10° SSW 19:32:24 28° SSE 19:37:51 10° E night (unlit)
02 Feb - 21:19:35 10° WSW 21:25:59 61° SSE 21:32:40 10° E night (unlit)
02 Feb - 23:13:19 10° W 23:19:59 79° S 23:27:05 10° E night (unlit)
03 Feb - 01:07:18 10° W 01:14:04 59° SSW 01:21:17 10° ESE visible
03 Feb - 03:01:59 10° W 03:07:55 28° SSW 03:14:09 10° SSE visible
03 Feb - 18:34:10 10° SSW 18:38:50 21° SSE 18:43:30 10° ESE visible
03 Feb - 20:26:04 10° WSW 20:32:18 52° SSE 20:38:44 10° E night (unlit)
03 Feb - 22:19:38 10° W 22:26:12 78° S 22:33:06 10° E night (unlit)
04 Feb - 00:13:35 10° W 00:20:16 66° S 00:27:24 10° ESE visible
04 Feb - 02:07:55 10° W 02:14:09 35° SSW 02:20:45 10° SE visible
04 Feb - 04:05:19 10° SW 04:07:51 12° SSW 04:10:24 10° S visible
04 Feb - 17:41:41 10° S 17:45:16 15° SSE 17:48:49 10° ESE visible
04 Feb - 19:32:38 10° SW 19:38:40 42° SSE 19:44:47 10° E visible
04 Feb - 21:25:59 10° WSW 21:32:27 74° S 21:39:11 10° E night (unlit)
04 Feb - 23:19:52 10° W 23:26:29 73° S 23:33:29 10° ESE night (unlit)
05 Feb - 01:14:00 10° W 01:20:24 42° SSW 01:27:11 10° SE visible
05 Feb - 03:09:52 10° WSW 03:14:06 17° SSW 03:18:29 10° S visible
05 Feb - 16:50:34 10° SSE 16:51:40 10° SSE 16:52:46 10° SE visible
05 Feb - 18:39:18 10° SW 18:45:04 34° SSE 18:50:48 10° E visible
05 Feb - 20:32:19 10° WSW 20:38:43 67° S 20:45:17 10° E night (unlit)
05 Feb - 22:26:11 10° W 22:32:42 77° S 22:39:34 10° E night (unlit)
06 Feb - 00:20:12 10° W 00:26:40 51° SSW 00:33:30 10° SE visible
06 Feb - 02:15:15 10° WSW 02:20:22 22° SSW 02:25:43 10° SSE visible
06 Feb - 17:46:08 10° SSW 17:51:27 26° SSE 17:56:43 10° E visible
06 Feb - 19:38:42 10° WSW 19:45:02 59° SSE 19:51:26 10° E visible
06 Feb - 21:32:28 10° W 21:38:57 78° S 21:45:40 10° E night (unlit)
06 Feb - 23:26:28 10° W 23:32:55 59° SSW 23:39:44 10° ESE night (unlit)
07 Feb - 01:21:02 10° W 01:26:40 28° SSW 01:32:35 10° SSE visible
07 Feb - 16:53:12 10° SSW 16:57:52 20° SSE 17:02:26 10° ESE visible
07 Feb - 18:45:07 10° SW 18:51:22 50° SSE 18:57:36 10° E visible
07 Feb - 20:38:45 10° W 20:45:13 77° S 20:51:48 10° E night (unlit)
07 Feb - 22:32:44 10° W 22:39:11 67° S 22:45:56 10° ESE night (unlit)
